The Villages, FL

10:58 AM EST on December 16, 2017 (GMT -0500)
The Villages

Weather History for KVVG - March, 2013

Change the Weather History Date:

Friday, March 22, 2013

  Actual Average (KLEE) Record (KLEE)
Temperature  
Mean Temperature 60 °F -  
Max Temperature 77 °F 77 °F 87 °F (1977)
Min Temperature 44 °F 53 °F 33 °F (1960)
Degree Days  
Heating Degree Days 4    
Growing Degree Days 10 (Base 50)    
Moisture  
Dew Point 43 °F    
Average Humidity 59    
Maximum Humidity 93    
Minimum Humidity 29    
Precipitation  
Precipitation 0.00 in - - ()
Sea Level Pressure  
Sea Level Pressure 29.98 in    
Wind  
Wind Speed 3 mph (ENE)    
Max Wind Speed 12 mph    
Max Gust Speed 17 mph    
Visibility 10 miles    
Events Rain    
Averages and records for this station are not official NWS values.
T = Trace of Precipitation, MM = Missing Value Source: NWS Daily Summary

Daily Weather History Graph

Daily Weather History Graph

Search for Another Location

Airport or City:

Trip Planner

Search our weather history database for the weather conditions in past years. The results will help you decide how hot, cold, wet, or windy it might be!

Date:

Astronomy

Mar. 22, 2013 Rise Set
Actual Time 7:28 AM EDT 7:40 PM EDT
Civil Twilight 7:05 AM EDT 8:03 PM EDT
Nautical Twilight 6:37 AM EDT 8:31 PM EDT
Astronomical Twilight 6:09 AM EDT 8:59 PM EDT
Moon 3:24 PM EDT (3/22) 4:08 AM EDT (3/22)
Length of Visible Light 12h 58m
Length of Day
12h 11m
Waxing Gibbous, 77% of the Moon is Illuminated
Mar 22
Waxing Gibbous
Mar 27
Full
Apr 3
Last Quarter
Apr 10
New
Apr 18
First Quarter

Hourly Weather History & Observations

Time (EDT) Temp. Dew Point Humidity Pressure Visibility Wind Dir Wind Speed Gust Speed Precip Events Conditions
12:15 AM 48.2 °F 42.8 °F 82% 29.97 in 10.0 mi Calm Calm - N/A   Unknown
12:35 AM 48.2 °F 42.8 °F 82% 29.97 in 10.0 mi Calm Calm - N/A   Unknown
12:55 AM 46.4 °F 42.8 °F 87% 29.97 in 10.0 mi Calm Calm - N/A   Unknown
1:15 AM 46.4 °F 41.0 °F 81% 29.97 in 10.0 mi Calm Calm - N/A   Unknown
1:35 AM 46.4 °F 42.8 °F 87% 29.95 in 10.0 mi Calm Calm - N/A   Unknown
1:55 AM 44.6 °F 42.8 °F 93% 29.96 in 10.0 mi Calm Calm - N/A   Unknown
2:15 AM 46.4 °F 42.8 °F 87% 29.95 in 10.0 mi Calm Calm - N/A   Unknown
2:35 AM 44.6 °F 42.8 °F 93% 29.95 in 10.0 mi Calm Calm - N/A   Unknown
2:55 AM 44.6 °F 41.0 °F 87% 29.94 in 10.0 mi Calm Calm - N/A   Unknown
3:15 AM 44.6 °F 41.0 °F 87% 29.94 in 10.0 mi Calm Calm - N/A   Unknown
3:35 AM 46.4 °F 41.0 °F 81% 29.94 in 10.0 mi Calm Calm - N/A   Unknown
3:55 AM 46.4 °F 41.0 °F 81% 29.93 in 10.0 mi Calm Calm - N/A   Unknown
4:15 AM 46.4 °F 41.0 °F 81% 29.93 in 10.0 mi Calm Calm - N/A   Unknown
4:35 AM 46.4 °F 41.0 °F 81% 29.94 in 10.0 mi Calm Calm - N/A   Unknown
4:55 AM 44.6 °F 42.8 °F 93% 29.93 in 10.0 mi Calm Calm - N/A   Unknown
5:15 AM 44.6 °F 42.8 °F 93% 29.95 in 10.0 mi Calm Calm - N/A   Unknown
5:35 AM 44.6 °F 42.8 °F 93% 29.95 in 10.0 mi Calm Calm - N/A   Unknown
5:55 AM 48.2 °F 42.8 °F 82% 29.95 in 10.0 mi Calm Calm - N/A   Unknown
6:15 AM 48.2 °F 42.8 °F 82% 29.97 in 10.0 mi Calm Calm - N/A   Unknown
6:35 AM 48.2 °F 41.0 °F 76% 29.99 in 10.0 mi Calm Calm - N/A   Unknown
6:55 AM 48.2 °F 39.2 °F 71% 30.00 in 10.0 mi Calm Calm - N/A   Unknown
7:15 AM 48.2 °F 39.2 °F 71% 30.00 in 10.0 mi Calm Calm - N/A   Unknown
7:55 AM 48.2 °F 35.6 °F 62% 30.01 in 10.0 mi Calm Calm - N/A   Unknown
8:15 AM 48.2 °F 37.4 °F 66% 30.02 in 10.0 mi Calm Calm - N/A   Unknown
8:35 AM 50.0 °F 37.4 °F 62% 30.02 in 10.0 mi NE 6.9 mph - N/A   Unknown
8:55 AM 51.8 °F 39.2 °F 62% 30.03 in 10.0 mi NNE 8.1 mph - N/A   Unknown
9:15 AM 53.6 °F 42.8 °F 67% 30.03 in 10.0 mi NE 8.1 mph - N/A   Unknown
9:35 AM 57.2 °F 42.8 °F 59% 30.03 in 10.0 mi NE 9.2 mph - N/A   Unknown
9:55 AM 60.8 °F 42.8 °F 52% 30.03 in 10.0 mi ENE 10.4 mph - N/A   Unknown
10:15 AM 60.8 °F 42.8 °F 52% 30.03 in 10.0 mi East 11.5 mph 16.1 mph N/A   Unknown
10:35 AM 62.6 °F 41.0 °F 45% 30.03 in 10.0 mi ENE 11.5 mph - N/A   Unknown
10:55 AM 64.4 °F 37.4 °F 37% 30.04 in 10.0 mi East 11.5 mph - N/A   Unknown
11:15 AM 64.4 °F 37.4 °F 37% 30.04 in 10.0 mi ESE 10.4 mph - N/A   Unknown
11:35 AM 66.2 °F 37.4 °F 35% 30.04 in 10.0 mi ESE 11.5 mph - N/A   Unknown
11:55 AM 66.2 °F 37.4 °F 35% 30.03 in 10.0 mi East 10.4 mph - N/A   Unknown
12:15 PM 66.2 °F 35.6 °F 32% 30.03 in 10.0 mi East 11.5 mph - N/A   Unknown
12:35 PM 69.8 °F 37.4 °F 31% 30.01 in 10.0 mi East 11.5 mph 17.3 mph N/A   Unknown
12:55 PM 69.8 °F 37.4 °F 31% 30.00 in 10.0 mi ESE 9.2 mph - N/A   Unknown
1:15 PM 71.6 °F 37.4 °F 29% 30.00 in 10.0 mi ESE 9.2 mph - N/A   Unknown
1:35 PM 71.6 °F 39.2 °F 31% 30.00 in 10.0 mi East 8.1 mph - N/A   Unknown
1:55 PM 71.6 °F 41.0 °F 33% 30.00 in 10.0 mi East 6.9 mph - N/A   Unknown
2:55 PM 73.4 °F 42.8 °F 33% 29.96 in 10.0 mi East 9.2 mph - N/A   Unknown
3:15 PM 75.2 °F 42.8 °F 31% 29.95 in 10.0 mi ESE 9.2 mph - N/A   Unknown
3:55 PM 73.4 °F 42.8 °F 33% 29.94 in 10.0 mi Calm Calm - N/A   Unknown
4:15 PM 77.0 °F 44.6 °F 32% 29.93 in 10.0 mi ESE 6.9 mph - N/A   Unknown
4:35 PM 77.0 °F 44.6 °F 32% 29.92 in 10.0 mi South 3.5 mph - N/A   Unknown
4:55 PM 75.2 °F 44.6 °F 34% 29.93 in 10.0 mi SE 6.9 mph - N/A   Unknown
5:15 PM 75.2 °F 44.6 °F 34% 29.92 in 10.0 mi Calm Calm - N/A   Unknown
5:35 PM 75.2 °F 46.4 °F 36% 29.92 in 10.0 mi ENE 8.1 mph - N/A   Unknown
5:55 PM 75.2 °F 46.4 °F 36% 29.93 in 10.0 mi Calm Calm - N/A Rain Light Rain
6:15 PM 73.4 °F 50.0 °F 44% 29.93 in 6.0 mi NNE 6.9 mph - N/A Rain Light Rain
6:35 PM 71.6 °F 48.2 °F 43% 29.94 in 10.0 mi Calm Calm - N/A   Unknown
6:55 PM 69.8 °F 48.2 °F 46% 29.94 in 10.0 mi NNE 9.2 mph - N/A   Unknown
7:15 PM 69.8 °F 48.2 °F 46% 29.95 in 10.0 mi ENE 9.2 mph - N/A   Unknown
7:35 PM 68.0 °F 48.2 °F 49% 29.96 in 10.0 mi ENE 6.9 mph - N/A   Unknown
7:55 PM 68.0 °F 48.2 °F 49% 29.96 in 10.0 mi ENE 9.2 mph - N/A   Unknown
8:15 PM 68.0 °F 48.2 °F 49% 29.98 in 1.0 mi East 9.2 mph - N/A   Haze
8:35 PM 66.2 °F 48.2 °F 52% 29.98 in 10.0 mi East 5.8 mph - N/A   Unknown
8:55 PM 66.2 °F 48.2 °F 52% 29.98 in 10.0 mi ENE 9.2 mph - N/A   Unknown
9:15 PM 64.4 °F 48.2 °F 56% 29.98 in 10.0 mi East 9.2 mph - N/A   Unknown
9:35 PM 64.4 °F 48.2 °F 56% 29.99 in 10.0 mi ENE 5.8 mph - N/A   Unknown
9:55 PM 64.4 °F 48.2 °F 56% 30.00 in 10.0 mi ENE 4.6 mph - N/A   Unknown
10:15 PM 62.6 °F 48.2 °F 59% 30.01 in 10.0 mi ENE 5.8 mph - N/A   Unknown
10:35 PM 62.6 °F 48.2 °F 59% 30.00 in 10.0 mi NE 4.6 mph - N/A   Unknown
10:55 PM 62.6 °F 50.0 °F 63% 30.01 in 10.0 mi ENE 8.1 mph - N/A   Unknown
11:15 PM 62.6 °F 50.0 °F 63% 30.01 in 10.0 mi ENE 6.9 mph - N/A   Unknown
11:35 PM 62.6 °F 50.0 °F 63% 30.01 in 10.0 mi ENE 6.9 mph - N/A   Unknown
11:55 PM 62.6 °F 51.8 °F 68% 30.00 in 10.0 mi East 5.8 mph - N/A   Unknown